TimePDT,TemperatureF,Dew PointF,Humidity,Sea Level PressureIn,VisibilityMPH,Wind Direction,Wind SpeedMPH,Gust SpeedMPH,PrecipitationIn,Events,Conditions,WindDirDegrees,DateUTC
12:01 AM,55.4,53.6,94,29.93,10.0,SSE,3.5,-,N/A,,Mostly Cloudy,150,2013-09-01 07:01:00
12:22 AM,55.4,53.6,94,29.93,10.0,SE,3.5,-,N/A,,Scattered Clouds,130,2013-09-01 07:22:00
12:53 AM,55.0,53.1,93,29.91,10.0,South,3.5,-,N/A,,Clear,170,2013-09-01 07:53:00
1:12 AM,55.4,53.6,94,29.92,10.0,Calm,Calm,-,N/A,,Partly Cloudy,0,2013-09-01 08:12:00
1:24 AM,55.4,53.6,94,29.92,10.0,Calm,Calm,-,N/A,,Mostly Cloudy,0,2013-09-01 08:24:00
1:33 AM,55.4,53.6,94,29.92,10.0,South,3.5,-,N/A,,Overcast,190,2013-09-01 08:33:00
1:53 AM,55.0,54.0,96,29.90,10.0,SE,3.5,-,N/A,,Overcast,140,2013-09-01 08:53:00
2:53 AM,55.0,53.1,93,29.89,9.0,Calm,Calm,-,N/A,,Overcast,0,2013-09-01 09:53:00
3:01 AM,55.4,53.6,94,29.91,6.0,Calm,Calm,-,N/A,,Overcast,0,2013-09-01 10:01:00
3:41 AM,53.6,53.6,100,29.91,1.8,Calm,Calm,-,N/A,,Overcast,0,2013-09-01 10:41:00
3:53 AM,54.0,54.0,100,29.89,1.0,Calm,Calm,-,N/A,,Mist,0,2013-09-01 10:53:00
4:15 AM,53.6,53.6,100,29.90,0.5,Calm,Calm,-,N/A,Fog,Fog,0,2013-09-01 11:15:00
4:26 AM,53.6,53.6,100,29.91,1.2,South,4.6,-,N/A,,Overcast,170,2013-09-01 11:26:00
4:53 AM,54.0,53.1,97,29.89,3.0,SW,3.5,-,N/A,,Overcast,220,2013-09-01 11:53:00
5:14 AM,53.6,53.6,100,29.91,1.8,Calm,Calm,-,N/A,,Overcast,0,2013-09-01 12:14:00
5:53 AM,54.0,54.0,100,29.89,1.0,Calm,Calm,-,N/A,,Mist,0,2013-09-01 12:53:00
6:08 AM,53.6,53.6,100,29.91,2.0,Calm,Calm,-,N/A,,Overcast,0,2013-09-01 13:08:00
6:19 AM,53.6,53.6,100,29.91,1.8,Calm,Calm,-,N/A,,Overcast,0,2013-09-01 13:19:00
6:24 AM,53.6,53.6,100,29.91,3.0,Calm,Calm,-,N/A,,Overcast,0,2013-09-01 13:24:00
6:53 AM,55.0,53.1,93,29.91,2.0,Calm,Calm,-,N/A,,Overcast,0,2013-09-01 13:53:00
7:53 AM,55.9,54.0,93,29.92,6.0,Calm,Calm,-,N/A,,Mostly Cloudy,0,2013-09-01 14:53:00
8:01 AM,57.2,53.6,88,29.94,6.0,Calm,Calm,-,N/A,,Mostly Cloudy,0,2013-09-01 15:01:00
8:24 AM,57.2,53.6,88,29.94,10.0,Calm,Calm,-,N/A,,Mostly Cloudy,0,2013-09-01 15:24:00
8:53 AM,59.0,54.0,83,29.93,10.0,Calm,Calm,-,N/A,,Clear,0,2013-09-01 15:53:00
9:53 AM,63.0,55.0,75,29.92,10.0,Calm,Calm,-,N/A,,Mostly Cloudy,0,2013-09-01 16:53:00
10:53 AM,69.1,54.0,58,29.91,10.0,SSE,3.5,-,N/A,,Mostly Cloudy,150,2013-09-01 17:53:00
11:53 AM,75.9,54.0,46,29.90,10.0,Variable,3.5,-,N/A,,Mostly Cloudy,0,2013-09-01 18:53:00
12:53 PM,80.1,55.0,42,29.88,10.0,Variable,6.9,-,N/A,,Scattered Clouds,0,2013-09-01 19:53:00
1:53 PM,81.0,54.0,39,29.86,10.0,South,6.9,-,N/A,,Partly Cloudy,180,2013-09-01 20:53:00
2:53 PM,82.9,54.0,37,29.84,10.0,South,9.2,-,N/A,,Scattered Clouds,170,2013-09-01 21:53:00
3:53 PM,81.0,55.9,42,29.84,10.0,SW,8.1,-,N/A,,Partly Cloudy,220,2013-09-01 22:53:00
4:53 PM,79.0,57.0,47,29.83,10.0,South,9.2,-,N/A,,Scattered Clouds,190,2013-09-01 23:53:00
5:53 PM,78.1,57.0,48,29.83,10.0,SW,9.2,-,N/A,,Scattered Clouds,220,2013-09-02 00:53:00
6:53 PM,75.0,57.9,55,29.85,10.0,Variable,5.8,-,N/A,,Scattered Clouds,0,2013-09-02 01:53:00
7:53 PM,71.1,57.0,61,29.86,10.0,Calm,Calm,-,N/A,,Clear,0,2013-09-02 02:53:00
8:53 PM,69.1,57.9,68,29.88,10.0,SE,5.8,-,N/A,,Clear,130,2013-09-02 03:53:00
9:53 PM,64.9,59.0,81,29.88,10.0,SE,5.8,-,N/A,,Clear,140,2013-09-02 04:53:00
10:53 PM,64.0,59.0,84,29.88,10.0,SSE,3.5,-,N/A,,Clear,160,2013-09-02 05:53:00
11:53 PM,64.0,59.0,84,29.88,10.0,Calm,Calm,-,N/A,,Clear,0,2013-09-02 06:53:00